Location: Stoke Bliss
(52.2667°N, 2.5167°W)
Time: 21:44:54
(UTC+00:00)

SL-08 RB Rocket - Pass Details

Date: 03 March 2021
Orbit: 647 x 683 km, 97.8° (Epoch: 16 April)

Event Time Altitude Azimuth Distance (km) Brightness Sun altitude
Rises 18:51:58 0° 155° (SSE) 2,971 6.8 -9.7°
Reaches altitude 10° 18:54:10 10° 152° (SSE) 2,069 6.0 -10.1°
Maximum altitude 18:58:38 64° 72° (ENE) 739 3.7 -10.8°
Drops below altitude 10° 19:03:11 10° 351° (N) 2,108 6.5 -11.5°
Sets 19:05:27 0° 349° (NNW) 3,032 7.3 -11.8°
